TimeEDT,TemperatureF,Dew PointF,Humidity,Sea Level PressureIn,VisibilityMPH,Wind Direction,Wind SpeedMPH,Gust SpeedMPH,PrecipitationIn,Events,Conditions,WindDirDegrees,DateUTC
12:53 AM,52.0,46.9,83,30.01,10.0,WNW,10.4,-,N/A,,Mostly Cloudy,290,2013-10-08 04:53:00
1:53 AM,52.0,46.9,83,30.04,10.0,West,10.4,-,N/A,,Mostly Cloudy,280,2013-10-08 05:53:00
2:53 AM,51.1,46.9,86,30.07,10.0,West,8.1,-,N/A,,Scattered Clouds,270,2013-10-08 06:53:00
3:53 AM,46.9,44.1,90,30.11,10.0,NW,5.8,-,N/A,,Clear,310,2013-10-08 07:53:00
4:53 AM,46.0,44.1,93,30.14,10.0,Calm,Calm,-,N/A,,Clear,0,2013-10-08 08:53:00
5:53 AM,43.0,41.0,93,30.17,10.0,Calm,Calm,-,N/A,,Clear,0,2013-10-08 09:53:00
6:53 AM,39.9,39.0,97,30.20,5.0,Calm,Calm,-,N/A,,Clear,0,2013-10-08 10:53:00
7:53 AM,42.1,41.0,96,30.25,5.0,Calm,Calm,-,N/A,,Clear,0,2013-10-08 11:53:00
8:53 AM,48.9,43.0,80,30.26,10.0,Calm,Calm,-,N/A,,Mostly Cloudy,0,2013-10-08 12:53:00
9:53 AM,51.1,42.1,71,30.29,10.0,Variable,3.5,-,N/A,,Clear,0,2013-10-08 13:53:00
10:53 AM,55.0,42.1,62,30.31,10.0,Variable,4.6,-,N/A,,Clear,0,2013-10-08 14:53:00
11:53 AM,57.0,42.1,57,30.31,10.0,Variable,3.5,-,N/A,,Clear,0,2013-10-08 15:53:00
12:53 PM,59.0,41.0,51,30.30,10.0,West,10.4,-,N/A,,Mostly Cloudy,270,2013-10-08 16:53:00
1:53 PM,60.1,41.0,49,30.31,10.0,WSW,8.1,-,N/A,,Scattered Clouds,250,2013-10-08 17:53:00
2:53 PM,60.1,41.0,49,30.31,10.0,WSW,6.9,-,N/A,,Scattered Clouds,250,2013-10-08 18:53:00
3:53 PM,60.1,39.9,47,30.31,10.0,West,8.1,-,N/A,,Partly Cloudy,270,2013-10-08 19:53:00
4:53 PM,60.1,39.9,47,30.31,10.0,WNW,9.2,-,N/A,,Clear,300,2013-10-08 20:53:00
5:53 PM,59.0,41.0,51,30.32,10.0,West,5.8,-,N/A,,Clear,280,2013-10-08 21:53:00
6:53 PM,51.1,44.1,77,30.33,10.0,NNE,3.5,-,N/A,,Clear,20,2013-10-08 22:53:00
7:53 PM,48.9,44.1,83,30.35,10.0,Calm,Calm,-,N/A,,Clear,0,2013-10-08 23:53:00
8:53 PM,46.9,42.1,83,30.37,10.0,Calm,Calm,-,N/A,,Clear,0,2013-10-09 00:53:00
9:53 PM,45.0,41.0,86,30.38,10.0,East,4.6,-,N/A,,Clear,90,2013-10-09 01:53:00
10:53 PM,42.1,39.9,92,30.38,10.0,SE,6.9,-,N/A,,Clear,140,2013-10-09 02:53:00
11:53 PM,43.0,39.9,89,30.39,10.0,East,4.6,-,N/A,,Clear,100,2013-10-09 03:53:00